Location: Riverton
(43.0250°N, 108.3790°W)
Time: 22:10:47
(UTC-06:00)

Amateur Radio Satellites - All Passes

Search period start: 29 August 2014 21:40
Search period end: 30 August 2014 21:40
Location: Riverton, 43.0250°N, 108.3790°W

Satellite Date Start Highest point End Downlink Frequencies (MHz)
Time Altitude Azimuth
STRAND 1 29 Aug 21:49:20 21:52:03 15° 301° (WNW) 21:54:45 ?
MaSat-1 29 Aug 22:01:39 22:04:28 16° 43° (NE) 22:07:07 437.345 MHz
UKube-1 29 Aug 22:24:32 22:28:34 37° 262° (W) 22:32:38 145.840 MHz, 145.915 MHz
Oscar 11 29 Aug 22:31:28 22:35:42 52° 260° (W) 22:39:59 145.825 FM, Beacon 2401.500 USB
KITSAT 1 29 Aug 22:35:01 22:39:26 16° 100° (E) 22:43:51 435.175 FM
FUNcube-1 29 Aug 22:54:21 22:58:31 78° 258° (WSW) 23:02:47 145.950 - 145.970 MHz USB
HO-68 29 Aug 23:20:14 23:23:53 15° 272° (W) 23:27:33 435.675 MHz FM
Saudisat 1A 29 Aug 23:23:12 23:27:32 60° 120° (ESE) 23:31:54 436.775 MHz
MaSat-1 29 Aug 23:37:34 23:42:14 76° 246° (WSW) 23:46:13 437.345 MHz
KITSAT 1 30 Aug 00:25:27 00:33:32 79° 119° (ESE) 00:41:39 435.175 FM
Saudisat 1A 30 Aug 01:04:12 01:07:29 20° 319° (NW) 01:10:47 436.775 MHz
Sapphire 30 Aug 01:35:31 01:39:58 25° 45° (NE) 01:44:24 437.095 MHz 1200 baud AX-25 AFSK
PCSat 30 Aug 02:04:46 02:09:55 41° 52° (NE) 02:15:01 145.825 MHz
AO-40 30 Aug 02:06:36 03:19:44 16° 230° (SW) 05:14:05 Beacon 2401.320
Oscar 19 30 Aug 02:14:47 02:19:31 34° 96° (E) 02:24:12 437.125 CW, 437.150 USB
KITSAT 1 30 Aug 02:22:50 02:29:47 31° 321° (NW) 02:36:46 435.175 FM
JAS-1B 30 Aug 02:27:35 02:32:23 20° 87° (E) 02:36:44 435.800 - 435.900 CW/SSB
ITAMSAT 1 30 Aug 02:45:20 02:49:48 29° 95° (E) 02:54:15 435.822 SSB
AO-Echo 30 Aug 02:49:11 02:53:25 33° 97° (E) 02:57:38 ?
Oscar 16 30 Aug 02:49:13 02:54:26 74° 103° (ESE) 02:59:37 437.025 USB, Beacon 2401.1428
TMSAT-1 30 Aug 02:52:33 02:53:43 11° 87° (E) 02:54:53 436.925 FM
Uribyol 2 30 Aug 02:55:17 03:00:06 37° 98° (E) 03:04:54 436.500 FM
AO-27 30 Aug 03:13:44 03:18:49 53° 100° (E) 03:23:53 436.795 MHz FM
Sapphire 30 Aug 03:18:26 03:23:46 58° 245° (WSW) 03:29:04 437.095 MHz 1200 baud AX-25 AFSK
Oscar 10/S400 30 Aug 03:22:54 04:32:37 38° 229° (SW) 09:18:01 145.825 - 145.975 CW/USB, Beacon 145.810 USB
SO-50 30 Aug 03:23:05 03:25:40 15° 109° (ESE) 03:28:17 436.795 FM
Gurwin Techsat 1B 30 Aug 03:37:10 03:42:10 40° 98° (E) 03:47:07 435.225 FM
PCSat 30 Aug 03:48:28 03:53:10 31° 250° (WSW) 03:57:52 145.825 MHz
Oscar 19 30 Aug 03:54:13 03:58:47 32° 294° (WNW) 04:03:19 437.125 CW, 437.150 USB
OPAL 30 Aug 04:04:12 04:08:53 39° 66° (ENE) 04:13:39 ?
JAS-1B 30 Aug 04:16:59 04:23:50 62° 290° (WNW) 04:29:42 435.800 - 435.900 CW/SSB
KITSAT 1 30 Aug 04:24:27 04:28:22 14° 350° (N) 04:32:17 435.175 FM
ITAMSAT 1 30 Aug 04:24:37 04:29:20 37° 292° (WNW) 04:34:04 435.822 SSB
AO-Echo 30 Aug 04:28:09 04:32:06 27° 294° (WNW) 04:36:01 ?
TMSAT-1 30 Aug 04:29:03 04:34:23 87° 104° (ESE) 04:39:41 436.925 FM
Oscar 16 30 Aug 04:30:05 04:33:11 16° 300° (WNW) 04:36:16 437.025 USB, Beacon 2401.1428
Uribyol 2 30 Aug 04:35:01 04:39:26 29° 295° (WNW) 04:43:51 436.500 FM
AO-7 30 Aug 04:41:42 04:48:50 31° 95° (E) 04:55:53 29.400 - 29.500 MHz
AO-27 30 Aug 04:54:08 04:57:57 21° 298° (WNW) 05:01:47 436.795 MHz FM
SO-50 30 Aug 05:01:15 05:05:41 63° 307° (NW) 05:10:16 436.795 FM
Uosat F 30 Aug 05:17:11 05:22:01 48° 100° (E) 05:26:50 435.120 FM
Gurwin Techsat 1B 30 Aug 05:17:29 05:21:56 28° 295° (WNW) 05:26:23 435.225 FM
UOSAT-12 30 Aug 05:25:54 05:29:23 22° 111° (ESE) 05:32:56 437.025 FM, 437.400 FM
OPAL 30 Aug 05:43:37 05:47:51 27° 263° (W) 05:52:10 ?
STRAND 1 30 Aug 05:48:32 05:51:46 17° 61° (ENE) 05:55:00 ?
JAS-1B 30 Aug 06:10:43 06:12:44 11° 314° (NW) 06:14:41 435.800 - 435.900 CW/SSB
TMSAT-1 30 Aug 06:10:56 06:13:34 14° 302° (WNW) 06:16:12 436.925 FM
Saudisat 1A 30 Aug 06:11:15 06:13:00 12° 33° (NNE) 06:14:44 436.775 MHz
KITSAT 1 30 Aug 06:22:48 06:27:49 17° 21° (NNE) 06:32:50 435.175 FM
AO-7 30 Aug 06:33:55 06:42:03 62° 294° (WNW) 06:50:08 29.400 - 29.500 MHz
SO-50 30 Aug 06:45:12 06:47:13 13° 328° (NNW) 06:49:15 436.795 FM
Hamsat 30 Aug 06:51:42 06:55:54 46° 98° (E) 07:00:03 145.90 MHz
Uosat F 30 Aug 06:56:42 07:00:29 22° 297° (WNW) 07:04:16 435.120 FM
UOSAT-12 30 Aug 07:04:43 07:09:13 48° 310° (NW) 07:13:48 437.025 FM, 437.400 FM
RS-15 30 Aug 07:10:54 07:20:02 31° 105° (ESE) 07:29:00 29.354 - 29.394 USB, Beacon 29.352 USB
JAS-2 30 Aug 07:14:20 07:19:33 67° 102° (ESE) 07:25:07 435.800 - 435.900 CW/SSB, 435.910 FM
STRAND 1 30 Aug 07:25:22 07:30:25 66° 258° (WSW) 07:35:31 ?
Saudisat 1A 30 Aug 07:49:04 07:53:28 63° 53° (NE) 07:57:50 436.775 MHz
SO-67 30 Aug 08:10:33 08:13:57 50° 99° (E) 08:17:18 435.3500 MHz FM
KITSAT 1 30 Aug 08:17:50 08:25:35 47° 48° (NE) 08:33:16 435.175 FM
Hamsat 30 Aug 08:28:35 08:31:30 18° 295° (WNW) 08:34:25 145.90 MHz
AO-7 30 Aug 08:28:52 08:33:12 16° 316° (NW) 08:37:33 29.400 - 29.500 MHz
UOSAT-12 30 Aug 08:49:11 08:50:32 11° 331° (NNW) 08:51:53 437.025 FM, 437.400 FM
HO-68 30 Aug 08:56:21 09:00:52 18° 90° (E) 09:05:21 435.675 MHz FM
JAS-2 30 Aug 09:00:58 09:04:13 17° 299° (WNW) 09:07:33 435.800 - 435.900 CW/SSB, 435.910 FM
RS-15 30 Aug 09:20:17 09:31:21 75° 307° (NW) 09:42:20 29.354 - 29.394 USB, Beacon 29.352 USB
Saudisat 1A 30 Aug 09:30:05 09:32:33 15° 250° (WSW) 09:35:00 436.775 MHz
SO-67 30 Aug 09:45:48 09:46:33 11° 296° (WNW) 09:47:17 435.3500 MHz FM
ISS 30 Aug 10:10:45 10:12:04 12° 130° (SE) 10:13:23 145.800 FM
UKube-1 30 Aug 10:11:45 10:15:40 32° 97° (E) 10:19:33 145.840 MHz, 145.915 MHz
KITSAT 1 30 Aug 10:13:25 10:20:59 46° 249° (WSW) 10:28:32 435.175 FM
Oscar 11 30 Aug 10:18:32 10:22:13 26° 95° (E) 10:25:51 145.825 FM, Beacon 2401.500 USB
HO-68 30 Aug 10:42:13 10:49:24 86° 288° (WNW) 10:56:34 435.675 MHz FM
FUNcube-1 30 Aug 10:43:04 10:46:25 20° 93° (E) 10:49:48 145.950 - 145.970 MHz USB
RS-15 30 Aug 11:36:40 11:45:52 30° 335° (NNW) 11:55:09 29.354 - 29.394 USB, Beacon 29.352 USB
ISS 30 Aug 11:45:00 11:48:20 89° 325° (NW) 11:51:40 145.800 FM
UKube-1 30 Aug 11:48:13 11:51:43 24° 294° (WNW) 11:55:14 145.840 MHz, 145.915 MHz
SO-50 30 Aug 11:51:55 11:55:47 24° 42° (NE) 11:59:42 436.795 FM
Oscar 11 30 Aug 11:54:34 11:58:23 30° 291° (WNW) 12:02:11 145.825 FM, Beacon 2401.500 USB
FUNcube-1 30 Aug 12:18:42 12:22:58 42° 289° (WNW) 12:27:16 145.950 - 145.970 MHz USB
Oscar 16 30 Aug 12:30:27 12:33:33 16° 60° (ENE) 12:36:40 437.025 USB, Beacon 2401.1428
HO-68 30 Aug 12:31:29 12:36:08 19° 307° (NW) 12:40:47 435.675 MHz FM
AO-27 30 Aug 12:57:05 12:59:17 13° 57° (ENE) 13:01:29 436.795 MHz FM
JAS-1B 30 Aug 13:10:38 13:18:34 31° 60° (ENE) 13:25:47 435.800 - 435.900 CW/SSB
ISS 30 Aug 13:22:40 13:25:25 23° 345° (NNW) 13:28:11 145.800 FM
Gurwin Techsat 1B 30 Aug 13:24:50 13:25:23 10° 55° (NE) 13:25:57 435.225 FM
MaSat-1 30 Aug 13:25:46 13:30:19 40° 109° (ESE) 13:35:08 437.345 MHz
SO-50 30 Aug 13:31:59 13:36:40 56° 241° (WSW) 13:41:24 436.795 FM
Oscar 19 30 Aug 13:32:28 13:37:28 54° 71° (ENE) 13:42:32 437.125 CW, 437.150 USB
UOSAT-12 30 Aug 13:53:40 13:57:46 28° 44° (NE) 14:01:50 437.025 FM, 437.400 FM
RS-15 30 Aug 13:54:35 14:03:03 24° 11° (N) 14:11:39 29.354 - 29.394 USB, Beacon 29.352 USB
AO-7 30 Aug 13:56:03 13:58:33 12° 40° (NE) 14:01:02 29.400 - 29.500 MHz
AO-Echo 30 Aug 14:02:46 14:07:36 49° 71° (ENE) 14:12:19 ?
ITAMSAT 1 30 Aug 14:04:10 14:09:06 48° 70° (ENE) 14:14:03 435.822 SSB
Oscar 16 30 Aug 14:07:10 14:12:18 72° 257° (WSW) 14:17:30 437.025 USB, Beacon 2401.1428
TMSAT-1 30 Aug 14:12:51 14:16:41 21° 62° (ENE) 14:20:31 436.925 FM
Uribyol 2 30 Aug 14:14:03 14:19:07 62° 72° (ENE) 14:24:14 436.500 FM
AO-27 30 Aug 14:32:50 14:38:01 88° 74° (ENE) 14:43:14 436.795 MHz FM
Uosat F 30 Aug 14:58:00 14:58:23 10° 56° (NE) 14:58:45 435.120 FM
JAS-1B 30 Aug 14:58:35 15:08:25 75° 257° (WSW) 15:17:17 435.800 - 435.900 CW/SSB
Gurwin Techsat 1B 30 Aug 14:59:07 15:04:22 69° 73° (ENE) 15:09:40 435.225 FM
ISS 30 Aug 15:00:30 15:02:59 19° 6° (N) 15:05:27 145.800 FM
MaSat-1 30 Aug 15:03:04 15:07:28 30° 308° (NW) 15:12:01 437.345 MHz
Oscar 19 30 Aug 15:13:29 15:17:08 19° 268° (W) 15:20:50 437.125 CW, 437.150 USB
UOSAT-12 30 Aug 15:33:36 15:38:04 42° 243° (WSW) 15:42:27 437.025 FM, 437.400 FM
AO-7 30 Aug 15:41:27 15:49:17 47° 62° (ENE) 15:57:06 29.400 - 29.500 MHz
AO-Echo 30 Aug 15:43:00 15:46:37 20° 267° (W) 15:50:11 ?
ITAMSAT 1 30 Aug 15:44:53 15:48:50 22° 267° (W) 15:52:48 435.822 SSB
TMSAT-1 30 Aug 15:50:59 15:56:10 57° 260° (W) 16:01:24 436.925 FM
Uribyol 2 30 Aug 15:55:48 15:59:02 17° 269° (W) 16:02:16 436.500 FM
RS-15 30 Aug 16:08:16 16:18:55 50° 43° (NE) 16:29:54 29.354 - 29.394 USB, Beacon 29.352 USB
AO-27 30 Aug 16:16:40 16:18:13 11° 272° (W) 16:19:47 436.795 MHz FM
Sapphire 30 Aug 16:20:22 16:23:27 16° 104° (ESE) 16:26:32 437.095 MHz 1200 baud AX-25 AFSK
Uosat F 30 Aug 16:31:17 16:36:16 74° 73° (ENE) 16:41:17 435.120 FM
ISS 30 Aug 16:37:08 16:40:20 42° 26° (NNE) 16:43:32 145.800 FM
Gurwin Techsat 1B 30 Aug 16:41:45 16:44:51 16° 270° (W) 16:47:58 435.225 FM
PCSat 30 Aug 16:47:59 16:52:37 30° 109° (ESE) 16:57:16 145.825 MHz
JAS-1B 30 Aug 16:54:09 16:59:56 17° 274° (W) 17:05:28 435.800 - 435.900 CW/SSB
JAS-2 30 Aug 17:28:04 17:33:20 32° 67° (ENE) 17:38:09 435.800 - 435.900 CW/SSB, 435.910 FM
AO-7 30 Aug 17:34:19 17:42:06 43° 261° (W) 17:49:55 29.400 - 29.500 MHz
Hamsat 30 Aug 17:45:52 17:49:50 37° 71° (ENE) 17:53:51 145.90 MHz
OPAL 30 Aug 17:51:22 17:56:37 74° 105° (ESE) 18:01:49 ?
Sapphire 30 Aug 18:00:47 18:06:11 76° 301° (WNW) 18:11:38 437.095 MHz 1200 baud AX-25 AFSK
Uosat F 30 Aug 18:13:13 18:15:35 13° 270° (W) 18:17:59 435.120 FM
ISS 30 Aug 18:14:03 18:16:59 29° 223° (SW) 18:19:55 145.800 FM
RS-15 30 Aug 18:20:50 18:31:30 56° 247° (WSW) 18:42:37 29.354 - 29.394 USB, Beacon 29.352 USB
PCSat 30 Aug 18:30:43 18:35:51 43° 308° (NW) 18:41:01 145.825 MHz
SO-67 30 Aug 18:45:07 18:47:42 20° 69° (ENE) 18:50:18 435.3500 MHz FM
JAS-2 30 Aug 19:12:39 19:18:22 38° 262° (W) 19:23:33 435.800 - 435.900 CW/SSB, 435.910 FM
Hamsat 30 Aug 19:22:40 19:25:55 21° 267° (W) 19:29:12 145.90 MHz
HO-68 30 Aug 19:27:27 19:31:41 17° 51° (NE) 19:35:55 435.675 MHz FM
OPAL 30 Aug 19:31:39 19:34:54 17° 303° (WNW) 19:38:08 ?
STRAND 1 30 Aug 19:35:09 19:39:55 38° 98° (E) 19:44:40 ?
Sapphire 30 Aug 19:47:19 19:50:33 16° 322° (NW) 19:53:48 437.095 MHz 1200 baud AX-25 AFSK
SO-67 30 Aug 20:17:46 20:20:37 24° 265° (W) 20:23:30 435.3500 MHz FM
PCSat 30 Aug 20:20:06 20:20:47 10° 330° (NNW) 20:21:28 145.825 MHz
UKube-1 30 Aug 21:08:13 21:12:05 32° 68° (ENE) 21:15:58 145.840 MHz, 145.915 MHz
HO-68 30 Aug 21:11:10 21:18:17 78° 71° (ENE) 21:25:27 435.675 MHz FM
STRAND 1 30 Aug 21:14:41 21:18:56 27° 295° (WNW) 21:23:11 ?
Oscar 11 30 Aug 21:14:46 21:18:13 24° 67° (ENE) 21:21:42 145.825 FM, Beacon 2401.500 USB
